EW0393 Weather Reports


time (UTC)temp
F
wind
direction
speed
knots
gust
knots
rain 1hr
in
rain 24hr
in
rain mn
in
humidity
%
barometer
mb
20260510152703 57 29 9.6 15.6 0.00 0.00 0.00 58 1015.4
20260510151803 55 37 8.7 15.6 0.00 0.00 0.00 62 1015.4
20260510150903 56 39 9.6 14.8 0.00 0.00 0.00 61 1015.4
20260510150004 58 30 8.7 15.6 0.00 0.00 0.00 58 1015.4
20260510145403 58 15 9.6 17.4 0.00 0.00 0.00 58 1015.6
20260510144503 58 12 10.4 17.4 0.00 0.00 0.00 58 1015.8
20260510143603 58 24 9.6 16.5 0.00 0.00 0.00 59 1015.9
20260510142920 57 18 9.6 16.5 0.00 0.00 0.00 59 1016.1
20260510141803 58 20 10.4 16.5 0.00 0.00 0.00 58 1016.1
20260510141120 58 22 9.6 15.6 0.00 0.00 0.00 59 1016.0
20260510140003 58 8 10.4 17.4 0.00 0.00 0.00 59 1016.3
20260510135403 58 6 11.3 17.4 0.00 0.00 0.00 60 1016.3
20260510134504 58 25 8.7 14.8 0.00 0.00 0.00 61 1016.4
20260510133603 56 45 8.7 16.5 0.00 0.00 0.00 61 1016.2
20260510132921 56 34 8.7 16.5 0.00 0.00 0.00 62 1016.4
20260510131803 56 24 9.6 16.5 0.00 0.00 0.00 64 1016.4
20260510130903 55 28 8.7 14.8 0.00 0.00 0.00 64 1016.4
20260510130004 56 15 8.7 14.8 0.00 0.00 0.00 65 1016.5
20260510125405 55 11 8.7 15.6 0.00 0.00 0.00 65 1016.5
20260510124503 56 21 9.6 15.6 0.00 0.00 0.00 64 1016.7
20260510123604 56 17 7.8 15.6 0.00 0.00 0.00 66 1016.7
20260510122703 55 20 9.6 15.6 0.00 0.00 0.00 67 1017.0
20260510122020 55 13 9.6 15.6 0.00 0.00 0.00 67 1016.8
20260510121121 54 20 8.7 15.6 0.00 0.00 0.00 68 1017.0
20260510120219 54 18 9.6 15.6 0.00 0.00 0.00 69 1017.1
20260510115403 54 18 8.7 15.6 0.00 0.00 0.00 70 1017.1
20260510114717 53 26 9.6 15.6 0.00 0.00 0.00 70 1017.3
20260510113603 54 23 9.6 15.6 0.00 0.00 0.00 69 1017.4
20260510112703 54 20 8.7 14.8 0.00 0.00 0.00 68 1017.4
20260510111803 54 24 8.7 13.9 0.00 0.00 0.00 69 1017.4
20260510110903 54 8 8.7 13.0 0.00 0.00 0.00 71 1017.4
20260510110004 54 22 7.0 11.3 0.00 0.00 0.00 71 1017.4
20260510105621 54 23 7.8 11.3 0.00 0.00 0.00 71 1017.4
20260510104503 54 30 7.0 14.8 0.00 0.00 0.00 72 1017.5
20260510103820 54 32 8.7 15.6 0.00 0.00 0.00 72 1017.5
20260510102703 53 20 9.6 15.6 0.00 0.00 0.00 74 1017.4
20260510102020 53 23 8.7 15.6 0.00 0.00 0.00 74 1017.5
20260510100903 54 17 9.6 16.5 0.00 0.00 0.00 74 1017.5
20260510100004 53 20 8.7 16.5 0.00 0.00 0.00 75 1017.6
20260510095403 52 20 9.6 16.5 0.00 0.00 0.00 75 1017.6
20260510094503 53 22 8.7 13.0 0.00 0.00 0.00 76 1017.6
20260510093603 52 16 7.8 13.9 0.00 0.00 0.00 76 1017.7
20260510092703 52 18 7.8 13.9 0.00 0.00 0.00 75 1017.9
20260510091803 52 23 9.6 14.8 0.00 0.00 0.00 74 1017.9
20260510090903 52 24 8.7 14.8 0.00 0.00 0.00 75 1017.9
20260510090003 52 23 7.8 15.6 0.00 0.00 0.00 75 1018.0
20260510085403 52 32 8.7 15.6 0.00 0.00 0.00 75 1017.9
20260510084503 53 31 8.7 15.6 0.00 0.00 0.00 74 1017.9
20260510083822 53 25 9.6 15.6 0.00 0.00 0.00 74 1018.0
20260510082919 53 22 7.8 13.9 0.00 0.00 0.00 76 1017.9
20260510081803 53 27 7.8 16.5 0.00 0.00 0.00 76 1017.9
20260510080904 53 28 8.7 16.5 0.00 0.00 0.00 76 1017.9
20260510080004 53 19 9.6 15.6 0.00 0.00 0.00 77 1017.9
20260510075617 53 17 8.7 15.6 0.00 0.00 0.00 78 1018.0
20260510074503 52 20 8.7 14.8 0.00 0.00 0.00 79 1017.9
20260510073817 52 17 7.8 14.8 0.00 0.00 0.00 81 1018.2
20260510072703 52 23 7.8 13.9 0.00 0.00 0.00 81 1018.1
20260510071803 52 19 7.8 14.8 0.00 0.00 0.00 81 1018.0
20260510070903 52 15 8.7 14.8 0.00 0.00 0.00 81 1017.9
20260510070004 52 14 7.8 14.8 0.00 0.00 0.00 82 1017.9
20260510065403 52 15 8.7 15.6 0.00 0.00 0.00 83 1017.9
20260510064503 52 4 8.7 15.6 0.00 0.00 0.00 84 1017.8
20260510063603 51 14 8.7 13.9 0.00 0.00 0.00 85 1017.9
20260510062920 51 5 8.7 13.9 0.00 0.00 0.00 85 1017.8
20260510061803 51 9 7.8 13.0 0.00 0.00 0.00 86 1017.7
20260510060903 51 8 7.8 12.2 0.00 0.00 0.00 87 1017.5
20260510060004 50 359 7.0 12.2 0.00 0.00 0.00 88 1017.5
20260510055403 50 357 7.0 12.2 0.00 0.00 0.00 88 1017.5
20260510054503 50 357 6.1 9.6 0.00 0.00 0.00 89 1017.6
20260510053603 49 358 5.2 8.7 0.00 0.00 0.00 89 1017.5
20260510052703 48 359 5.2 8.7 0.00 0.00 0.00 90 1017.4
20260510052018 48 3 5.2 8.7 0.00 0.00 0.00 89 1017.3
20260510051120 48 360 5.2 9.6 0.00 0.00 0.00 89 1017.4
20260510050218 48 357 6.1 12.2 0.00 0.00 0.00 89 1017.3
20260510045403 48 12 6.1 12.2 0.00 0.00 0.00 90 1017.3
20260510044503 47 22 6.1 10.4 0.00 0.00 0.00 90 1017.3
20260510043603 47 22 5.2 9.6 0.00 0.00 0.00 90 1017.3
20260510042703 47 20 5.2 9.6 0.00 0.00 0.00 89 1017.3
20260510041804 47 18 5.2 8.7 0.00 0.00 0.00 89 1017.4
20260510040903 47 18 4.3 9.6 0.00 0.00 0.00 89 1017.5
20260510040004 47 9 5.2 9.6 0.00 0.00 0.00 89 1017.6
20260510035403 47 3 6.1 12.2 0.00 0.00 0.00 89 1017.6
20260510034717 47 1 6.1 12.2 0.00 0.00 0.00 89 1017.7
20260510033820 47 1 7.0 11.3 0.00 0.00 0.00 88 1017.7
20260510032703 48 358 7.8 11.3 0.00 0.00 0.00 88 1017.9
20260510031803 48 356 7.0 11.3 0.00 0.00 0.00 87 1017.9
20260510030903 48 357 7.0 10.4 0.00 0.00 0.00 87 1017.8
20260510030004 49 9 7.0 13.9 0.00 0.00 0.00 86 1017.7
20260510025404 49 16 7.0 13.9 0.00 0.00 0.00 86 1017.6
20260510024718 49 17 7.8 13.9 0.00 0.00 0.00 86 1017.8
20260510023603 50 11 7.8 13.0 0.00 0.00 0.00 87 1018.1
20260510022703 50 3 7.8 13.0 0.00 0.00 0.00 88 1018.0
20260510021803 49 2 7.0 12.2 0.00 0.00 0.00 88 1017.9
20260510020903 49 360 6.1 10.4 0.00 0.00 0.00 88 1018.0
20260510020004 49 358 6.1 10.4 0.00 0.00 0.00 87 1017.8
20260510015621 49 360 6.1 10.4 0.00 0.00 0.00 87 1017.8
20260510014503 49 354 6.1 10.4 0.00 0.00 0.00 86 1017.6
20260510013821 50 356 7.0 13.0 0.00 0.00 0.00 86 1017.8
20260510012703 50 5 8.7 13.0 0.00 0.00 0.00 87 1017.9
20260510011803 50 6 7.0 13.0 0.00 0.00 0.00 87 1017.8
20260510011118 50 1 7.8 13.0 0.00 0.00 0.00 87 1018.0
20260510010220 50 2 7.8 13.0 0.00 0.00 0.00 87 1018.0
20260510005403 50 4 6.1 11.3 0.00 0.00 0.00 87 1018.0
20260510004719 50 6 5.2 9.6 0.00 0.00 0.00 87 1018.1
20260510003603 50 12 5.2 10.4 0.00 0.00 0.00 88 1018.0
20260510002703 50 14 5.2 11.3 0.00 0.00 0.00 88 1018.0
20260510001803 50 12 7.0 11.3 0.00 0.00 0.00 87 1018.1
20260510000903 50 10 6.1 11.3 0.00 0.00 0.00 88 1018.1
20260510000004 50 3 6.1 11.3 0.00 0.00 0.00 87 1018.1
20260509235403 50 2 7.0 10.4 0.00 0.00 0.00 87 1018.2
20260509234503 50 9 6.1 10.4 0.00 0.00 0.00 88 1018.0
20260509233603 49 8 6.1 10.4 0.00 0.00 0.00 87 1018.0
20260509232703 49 358 6.1 10.4 0.00 0.00 0.00 87 1018.0
20260509232017 49 353 5.2 9.6 0.00 0.00 0.00 86 1018.1
20260509230903 49 4 3.5 6.1 0.00 0.00 0.00 85 1018.3
20260509230009 49 11 2.6 7.0 0.00 0.00 0.00 84 1018.3
20260509225618 49 12 2.6 7.0 0.00 0.00 0.00 84 1018.4
20260509224503 50 21 2.6 7.0 0.00 0.00 0.00 84 1018.2
20260509223818 50 26 3.5 5.2 0.00 0.00 0.00 83 1018.2
20260509222703 50 32 3.5 7.0 0.00 0.00 0.00 82 1018.1
20260509221803 50 22 3.5 7.0 0.00 0.00 0.00 82 1018.1
20260509220903 50 12 3.5 7.0 0.00 0.00 0.00 81 1018.0
20260509220003 50 28 1.7 3.5 0.00 0.00 0.00 79 1017.9
20260509215403 50 33 0.9 3.5 0.00 0.00 0.00 79 1017.9
20260509214504 50 32 0.9 3.5 0.00 0.00 0.00 77 1017.9
20260509213818 50 28 0.9 3.5 0.00 0.00 0.00 75 1017.8
20260509212703 51 30 0.9 2.6 0.00 0.00 0.00 73 1017.7
20260509211803 51 30 0.9 2.6 0.00 0.00 0.00 73 1017.7
20260509210903 52 31 0.9 4.3 0.00 0.00 0.00 71 1017.7
20260509210003 52 39 1.7 4.3 0.00 0.00 0.00 70 1017.6
20260509205403 52 35 1.7 5.2 0.00 0.00 0.00 69 1017.6
20260509204503 52 26 1.7 5.2 0.00 0.00 0.00 68 1017.6
20260509203819 52 28 1.7 5.2 0.00 0.00 0.00 67 1017.6
20260509202703 53 27 0.9 4.3 0.00 0.00 0.00 65 1017.4
20260509201803 53 24 0.9 4.3 0.00 0.00 0.00 64 1017.5
20260509201121 53 15 1.7 4.3 0.00 0.00 0.00 63 1017.3
20260509200004 54 27 2.6 4.3 0.00 0.00 0.00 61 1017.3
20260509195403 55 37 1.7 3.5 0.00 0.00 0.00 60 1017.5
20260509194503 56 48 0.9 3.5 0.00 0.00 0.00 59 1017.5
20260509193820 56 47 1.7 5.2 0.00 0.00 0.00 58 1017.4
20260509192703 57 52 2.6 6.1 0.00 0.00 0.00 57 1016.9
20260509191803 58 46 2.6 6.1 0.00 0.00 0.00 55 1017.0
20260509191117 58 48 3.5 6.1 0.00 0.00 0.00 55 1017.1
20260509190004 59 52 2.6 5.2 0.00 0.00 0.00 53 1017.1
20260509185403 60 52 2.6 6.1 0.00 0.00 0.00 53 1017.0
20260509184503 60 54 3.5 6.1 0.00 0.00 0.00 52 1016.9
20260509183820 60 52 3.5 9.6 0.00 0.00 0.00 51 1016.9
20260509182703 60 53 4.3 10.4 0.00 0.00 0.00 51 1016.8
20260509182020 60 42 4.3 10.4 0.00 0.00 0.00 50 1016.7
20260509181117 61 38 5.2 10.4 0.00 0.00 0.00 49 1016.7
20260509180220 61 54 5.2 8.7 0.00 0.00 0.00 48 1016.7
20260509175403 62 54 6.1 10.4 0.00 0.00 0.00 46 1016.9
20260509174503 62 52 5.2 10.4 0.00 0.00 0.00 46 1017.1
20260509173603 63 56 6.1 9.6 0.00 0.00 0.00 45 1017.1
20260509172703 64 56 5.2 9.6 0.00 0.00 0.00 44 1017.0
20260509171803 64 51 5.2 8.7 0.00 0.00 0.00 45 1017.1
20260509171118 64 49 5.2 8.7 0.00 0.00 0.00 45 1017.1
20260509170003 64 41 5.2 11.3 0.00 0.00 0.00 44 1017.0
20260509165403 64 49 5.2 11.3 0.00 0.00 0.00 43 1016.9
20260509164719 65 53 5.2 9.6 0.00 0.00 0.00 43 1017.1
20260509163603 66 52 4.3 8.7 0.00 0.00 0.00 42 1017.2
20260509162703 67 52 5.2 10.4 0.00 0.00 0.00 40 1017.0
20260509162021 68 55 4.3 10.4 0.00 0.00 0.00 39 1017.1
20260509160903 69 68 3.5 7.8 0.00 0.00 0.00 40 1017.2
20260509160003 68 64 2.6 10.4 0.00 0.00 0.00 38 1017.1
20260509155403 69 49 5.2 11.3 0.00 0.00 0.00 39 1017.0
20260509154503 71 48 5.2 11.3 0.00 0.00 0.00 38 1017.0
20260509153603 72 35 6.1 11.3 0.00 0.00 0.00 36 1016.9